DW2786 Weather Reports


Display with metric or nautical units.
time (UTC)temp
F
wind
direction
speed
MPH
gust
MPH
rain 1hr
in
rain 24hr
in
rain mn
in
humidity
%
barometer
mb
20260510153814 74 257 0.0 2.0 0.00 0.00 0.00 63 1016.1
20260510153324 74 306 0.0 0.0 0.00 0.00 0.00 62 1016.2
20260510153043 73 306 0.0 1.0 0.00 0.00 0.00 60 1015.4
20260510153037 73 0 0.0 1.0 0.00 0.00 0.00 60 1013.8
20260510152813 74 306 0.0 1.0 0.00 0.00 0.00 59 1015.8
20260510152324 74 234 0.0 1.0 0.00 0.00 0.00 59 1015.6
20260510151809 74 234 0.0 2.0 0.00 0.00 0.00 59 1015.6
20260510151602 74 234 0.0 3.0 0.00 0.00 0.00 56 1015.2
20260510151538 74 0 0.0 6.0 0.00 0.00 0.00 56 1013.7
20260510151318 75 250 0.0 6.0 0.00 0.00 0.00 56 1015.9
20260510150828 75 263 2.0 6.0 0.00 0.00 0.00 57 1016.0
20260510150317 75 207 1.0 4.0 0.00 0.00 0.00 57 1016.1
20260510150042 74 171 1.0 6.0 0.00 0.00 0.00 57 1013.9
20260510145819 75 227 2.0 6.0 0.00 0.00 0.00 59 1016.1
20260510145324 74 270 3.0 6.0 0.00 0.00 0.00 60 1016.0
20260510144833 74 80 1.0 5.0 0.00 0.00 0.00 60 1016.0
20260510144553 73 36 2.0 5.0 0.00 0.00 0.00 60 1015.4
20260510144549 73 312 2.0 6.0 0.00 0.00 0.00 60 1013.8
20260510144322 73 318 2.0 5.0 0.00 0.00 0.00 61 1015.9
20260510143812 73 299 1.0 6.0 0.00 0.00 0.00 60 1016.0
20260510143323 73 287 2.0 6.0 0.00 0.00 0.00 60 1016.0
20260510143041 73 240 1.0 7.0 0.00 0.00 0.00 64 1015.5
20260510143038 72 240 1.0 7.0 0.00 0.00 0.00 64 1013.8
20260510142851 73 237 2.0 7.0 0.00 0.00 0.00 61 1016.0
20260510142310 72 301 3.0 7.0 0.00 0.00 0.00 61 1016.1
20260510141819 72 209 2.0 6.0 0.00 0.00 0.00 63 1016.1
20260510141554 71 256 1.0 5.0 0.00 0.00 0.00 63 1015.6
20260510141538 71 104 2.0 6.0 0.00 0.00 0.00 62 1013.9
20260510141327 72 175 2.0 6.0 0.00 0.00 0.00 64 1016.1
20260510140835 71 220 2.0 6.0 0.00 0.00 0.00 62 1016.0
20260510140323 71 231 2.0 5.0 0.00 0.00 0.00 64 1016.1
20260510140040 70 189 2.0 5.0 0.00 0.00 0.00 64 1013.7
20260510140007 70 187 2.0 5.0 0.00 0.00 0.00 65 1015.5
20260510135811 71 151 1.0 3.0 0.00 0.00 0.00 64 1016.0
20260510135321 70 115 2.0 3.0 0.00 0.00 0.00 66 1016.0
20260510134826 70 293 1.0 4.0 0.00 0.00 0.00 67 1016.0
20260510134556 69 196 0.0 8.0 0.00 0.00 0.00 66 1015.5
20260510134545 69 0 1.0 8.0 0.00 0.00 0.00 64 1013.7
20260510134315 70 229 1.0 8.0 0.00 0.00 0.00 65 1016.0
20260510133826 70 176 2.0 5.0 0.00 0.00 0.00 68 1015.9
20260510133334 69 185 4.0 8.0 0.00 0.00 0.00 71 1015.6
20260510133036 68 164 2.0 9.0 0.00 0.00 0.00 72 1013.5
20260510133034 68 255 2.0 8.0 0.00 0.00 0.00 72 1015.2
20260510132815 68 202 2.0 9.0 0.00 0.00 0.00 73 1015.6
20260510132322 67 142 2.0 9.0 0.00 0.00 0.00 77 1015.6
20260510131810 66 249 2.0 6.0 0.00 0.00 0.00 81 1015.9
20260510131558 65 140 1.0 8.0 0.00 0.00 0.00 82 1015.4
20260510131534 65 197 1.0 9.0 0.00 0.00 0.00 82 1013.6
20260510131337 65 186 3.0 8.0 0.00 0.00 0.00 83 1016.0
20260510130825 64 165 3.0 9.0 0.00 0.00 0.00 88 1016.0
20260510130314 62 156 2.0 5.0 0.00 0.00 0.00 90 1016.0
20260510130038 62 229 0.0 5.0 0.00 0.00 0.00 91 1013.8
20260510130012 62 256 0.0 4.0 0.00 0.00 0.00 92 1015.6
20260510125822 62 196 0.0 4.0 0.00 0.00 0.00 93 1016.0
20260510125330 61 188 2.0 6.0 0.00 0.00 0.00 94 1015.9
20260510124837 61 227 2.0 6.0 0.00 0.00 0.00 94 1015.8
20260510124546 60 167 1.0 5.0 0.00 0.00 0.00 94 1013.6
20260510124540 60 172 2.0 7.0 0.00 0.00 0.00 94 1015.5
20260510124318 60 217 2.0 4.0 0.00 0.00 0.00 95 1015.9
20260510123826 60 202 1.0 2.0 0.00 0.00 0.00 95 1015.9
20260510123314 59 162 1.0 4.0 0.00 0.00 0.00 95 1016.0
20260510123037 58 131 1.0 5.0 0.00 0.00 0.00 94 1013.7
20260510123021 58 131 1.0 4.0 0.00 0.00 0.00 95 1015.5
20260510122823 58 142 1.0 5.0 0.00 0.00 0.00 94 1016.0
20260510122331 57 182 2.0 5.0 0.00 0.00 0.00 94 1015.9
20260510121814 56 184 2.0 3.0 0.00 0.00 0.00 94 1015.9
20260510121558 55 166 1.0 3.0 0.00 0.00 0.00 94 1015.4
20260510121536 55 180 1.0 4.0 0.00 0.00 0.00 94 1013.6
20260510121322 55 200 1.0 3.0 0.00 0.00 0.00 94 1015.9
20260510120810 54 167 1.0 2.0 0.00 0.00 0.00 93 1015.9
20260510120340 54 175 1.0 2.0 0.00 0.00 0.00 92 1015.7
20260510120040 53 0 0.0 0.0 0.00 0.00 0.00 92 1013.5
20260510120022 53 175 0.0 0.0 0.00 0.00 0.00 92 1015.3
20260510115827 53 175 0.0 0.0 0.00 0.00 0.00 92 1015.7
20260510115337 52 175 0.0 2.0 0.00 0.00 0.00 92 1015.6
20260510114844 52 175 0.0 3.0 0.00 0.00 0.00 91 1015.5
20260510114533 51 175 1.0 4.0 0.00 0.00 0.00 91 1013.3
20260510114529 51 175 1.0 3.0 0.00 0.00 0.00 91 1015.1
20260510114332 52 175 2.0 3.0 0.00 0.00 0.00 91 1015.4
20260510113815 51 180 1.0 2.0 0.00 0.00 0.00 91 1015.5
20260510113323 51 180 0.0 2.0 0.00 0.00 0.00 91 1015.4
20260510113038 50 0 0.0 2.0 0.00 0.00 0.00 90 1013.1
20260510113009 50 185 0.0 2.0 0.00 0.00 0.00 90 1014.9
20260510112812 50 140 0.0 2.0 0.00 0.00 0.00 90 1015.2
20260510112315 50 108 0.0 0.0 0.00 0.00 0.00 90 1015.1
20260510111853 50 37 0.0 1.0 0.00 0.00 0.00 90 1015.0
20260510111551 50 0 0.0 1.0 0.00 0.00 0.00 89 1012.8
20260510111537 50 158 0.0 1.0 0.00 0.00 0.00 90 1014.5
20260510111315 50 146 0.0 1.0 0.00 0.00 0.00 90 1014.8
20260510110824 50 146 0.0 0.0 0.00 0.00 0.00 90 1014.8
20260510110317 50 146 0.0 0.0 0.00 0.00 0.00 90 1014.8
20260510110037 49 0 0.0 0.0 0.00 0.00 0.00 89 1012.7
20260510110030 49 146 0.0 0.0 0.00 0.00 0.00 89 1014.4
20260510105825 49 146 0.0 0.0 0.00 0.00 0.00 89 1014.6
20260510105310 49 146 0.0 0.0 0.00 0.00 0.00 89 1014.6
20260510104818 50 146 0.0 0.0 0.00 0.00 0.00 89 1014.5
20260510104619 49 146 0.0 0.0 0.00 0.00 0.00 89 1014.2
20260510104545 49 0 0.0 0.0 0.00 0.00 0.00 89 1012.3
20260510104327 50 146 0.0 0.0 0.00 0.00 0.00 89 1014.5
20260510103816 50 146 0.0 0.0 0.00 0.00 0.00 89 1014.5
20260510103326 50 146 0.0 0.0 0.00 0.00 0.00 89 1014.4
20260510103043 49 137 0.0 0.0 0.00 0.00 0.00 89 1013.9
20260510103038 49 0 0.0 1.0 0.00 0.00 0.00 89 1012.2
20260510102835 50 165 0.0 0.0 0.00 0.00 0.00 89 1014.4
20260510102343 50 263 0.0 1.0 0.00 0.00 0.00 89 1014.4
20260510101833 50 289 0.0 0.0 0.00 0.00 0.00 89 1014.4
20260510101537 50 325 0.0 0.0 0.00 0.00 0.00 89 1014.1
20260510101535 50 0 0.0 0.0 0.00 0.00 0.00 89 1012.2
20260510101315 50 337 0.0 0.0 0.00 0.00 0.00 89 1014.4
20260510100823 50 337 0.0 0.0 0.00 0.00 0.00 89 1014.3
20260510100332 50 337 0.0 0.0 0.00 0.00 0.00 89 1014.2
20260510100058 50 337 0.0 0.0 0.00 0.00 0.00 89 1013.8
20260510100032 50 0 0.0 0.0 0.00 0.00 0.00 89 1011.9
20260510095842 50 337 0.0 0.0 0.00 0.00 0.00 89 1014.1
20260510095310 50 196 0.0 3.0 0.00 0.00 0.00 89 1014.0
20260510094818 50 191 0.0 3.0 0.00 0.00 0.00 89 1013.8
20260510094540 50 219 1.0 4.0 0.00 0.00 0.00 88 1011.6
20260510094520 50 219 1.0 3.0 0.00 0.00 0.00 89 1013.4
20260510094327 50 207 1.0 4.0 0.00 0.00 0.00 89 1013.8
20260510093809 50 204 0.0 0.0 0.00 0.00 0.00 89 1013.8
20260510093318 50 213 0.0 0.0 0.00 0.00 0.00 89 1013.8
20260510093059 50 213 0.0 0.0 0.00 0.00 0.00 89 1013.3
20260510093037 50 0 0.0 0.0 0.00 0.00 0.00 88 1011.5
20260510092827 50 213 0.0 0.0 0.00 0.00 0.00 89 1013.8
20260510092316 50 250 0.0 0.0 0.00 0.00 0.00 89 1013.7
20260510091845 51 250 0.0 0.0 0.00 0.00 0.00 89 1013.6
20260510091536 50 0 0.0 0.0 0.00 0.00 0.00 88 1011.5
20260510091524 50 250 0.0 0.0 0.00 0.00 0.00 89 1013.3
20260510091333 51 250 0.0 0.0 0.00 0.00 0.00 89 1013.6
20260510090843 51 250 0.0 0.0 0.00 0.00 0.00 89 1013.6
20260510090324 51 250 0.0 0.0 0.00 0.00 0.00 89 1013.6
20260510090057 50 252 0.0 0.0 0.00 0.00 0.00 89 1013.1
20260510090036 50 0 0.0 0.0 0.00 0.00 0.00 88 1011.3
20260510085814 51 265 0.0 0.0 0.00 0.00 0.00 89 1013.5
20260510085324 51 261 0.0 0.0 0.00 0.00 0.00 89 1013.4
20260510084834 51 262 0.0 0.0 0.00 0.00 0.00 89 1013.5
20260510084539 51 270 0.0 0.0 0.00 0.00 0.00 89 1013.1
20260510084536 51 0 0.0 0.0 0.00 0.00 0.00 88 1011.3
20260510084316 51 236 0.0 0.0 0.00 0.00 0.00 89 1013.3
20260510083823 51 236 0.0 0.0 0.00 0.00 0.00 89 1013.4
20260510083313 51 236 0.0 0.0 0.00 0.00 0.00 89 1013.3
20260510083037 51 0 0.0 0.0 0.00 0.00 0.00 88 1011.1
20260510083008 51 236 0.0 0.0 0.00 0.00 0.00 89 1012.8
20260510082824 51 236 0.0 0.0 0.00 0.00 0.00 89 1013.1
20260510082332 51 236 0.0 0.0 0.00 0.00 0.00 89 1013.2
20260510081840 52 190 0.0 0.0 0.00 0.00 0.00 89 1013.1
20260510081542 51 0 0.0 0.0 0.00 0.00 0.00 88 1011.0
20260510081535 51 182 0.0 0.0 0.00 0.00 0.00 89 1012.8
20260510081321 52 182 0.0 0.0 0.00 0.00 0.00 89 1013.2
20260510080827 52 182 0.0 1.0 0.00 0.00 0.00 89 1013.1
20260510080335 52 182 0.0 2.0 0.00 0.00 0.00 89 1013.1
20260510080049 51 182 0.0 2.0 0.00 0.00 0.00 89 1012.6
20260510080039 51 0 0.0 2.0 0.00 0.00 0.00 88 1010.9
20260510075822 52 182 1.0 2.0 0.00 0.00 0.00 89 1013.0
20260510075312 52 182 1.0 3.0 0.00 0.00 0.00 89 1013.0
20260510074823 52 182 1.0 3.0 0.00 0.00 0.00 89 1012.9
20260510074537 52 0 0.0 3.0 0.00 0.00 0.00 88 1010.7
20260510074527 52 206 0.0 2.0 0.00 0.00 0.00 88 1012.6
20260510074333 52 202 1.0 3.0 0.00 0.00 0.00 89 1013.0
20260510073820 52 190 1.0 3.0 0.00 0.00 0.00 88 1013.0
20260510073330 52 182 1.0 2.0 0.00 0.00 0.00 89 1012.9
20260510073040 52 173 1.0 3.0 0.00 0.00 0.00 89 1012.5
20260510073035 52 190 1.0 3.0 0.00 0.00 0.00 88 1010.7
20260510072812 52 190 1.0 3.0 0.00 0.00 0.00 89 1013.0
20260510072322 53 215 2.0 3.0 0.00 0.00 0.00 89 1013.0
20260510071812 52 221 1.0 3.0 0.00 0.00 0.00 89 1013.0
20260510071533 52 225 1.0 3.0 0.00 0.00 0.00 88 1010.7
20260510071505 52 225 1.0 3.0 0.00 0.00 0.00 88 1012.6
20260510071342 52 185 1.0 3.0 0.00 0.00 0.00 88 1013.0
20260510070810 52 213 1.0 3.0 0.00 0.00 0.00 88 1013.0
20260510070320 52 228 1.0 3.0 0.00 0.00 0.00 88 1013.1
20260510070035 52 223 1.0 3.0 0.00 0.00 0.00 87 1010.7
20260510070028 52 223 1.0 3.0 0.00 0.00 0.00 88 1012.6
20260510065829 52 219 1.0 3.0 0.00 0.00 0.00 88 1013.0
20260510065312 52 198 2.0 3.0 0.00 0.00 0.00 88 1012.9
20260510064822 52 202 2.0 3.0 0.00 0.00 0.00 88 1013.0
20260510064537 52 204 1.0 3.0 0.00 0.00 0.00 87 1010.7
20260510064504 52 204 1.0 3.0 0.00 0.00 0.00 88 1012.6
20260510064312 52 203 2.0 3.0 0.00 0.00 0.00 88 1013.1
20260510063821 52 225 1.0 3.0 0.00 0.00 0.00 88 1013.2
20260510063332 52 219 1.0 3.0 0.00 0.00 0.00 88 1013.1
20260510063043 52 214 1.0 3.0 0.00 0.00 0.00 88 1012.6
20260510063039 52 240 1.0 3.0 0.00 0.00 0.00 87 1010.9
20260510062841 52 240 2.0 3.0 0.00 0.00 0.00 88 1013.1
20260510062332 52 225 1.0 3.0 0.00 0.00 0.00 87 1013.1
20260510061813 52 226 1.0 3.0 0.00 0.00 0.00 87 1013.0
20260510061543 52 229 1.0 3.0 0.00 0.00 0.00 87 1012.6
20260510061538 52 229 1.0 3.0 0.00 0.00 0.00 87 1010.8
20260510061321 52 235 2.0 3.0 0.00 0.00 0.00 87 1013.1
20260510060812 52 240 2.0 3.0 0.00 0.00 0.00 87 1013.1
20260510060322 52 224 0.0 0.0 0.00 0.00 0.00 87 1013.1
20260510060047 52 0 0.0 0.0 0.00 0.00 0.00 86 1010.9
20260510060034 52 216 0.0 0.0 0.00 0.00 0.00 87 1012.7
20260510055832 52 216 0.0 0.0 0.00 0.00 0.00 87 1013.1
20260510055315 52 202 0.0 0.0 0.00 0.00 0.00 87 1013.2
20260510054809 53 204 0.0 0.0 0.00 0.00 0.00 87 1013.1
20260510054534 52 0 0.0 2.0 0.00 0.00 0.00 86 1010.9
20260510054523 52 204 0.0 0.0 0.00 0.00 0.00 87 1012.8
20260510054319 53 226 0.0 2.0 0.00 0.00 0.00 87 1013.2
20260510053821 53 239 0.0 3.0 0.00 0.00 0.00 87 1013.2
20260510053328 53 239 2.0 3.0 0.00 0.00 0.00 87 1013.3
20260510053033 53 242 1.0 3.0 0.00 0.00 0.00 86 1011.0
20260510053003 53 229 1.0 3.0 0.00 0.00 0.00 87 1012.9
20260510052816 53 209 1.0 3.0 0.00 0.00 0.00 87 1013.4
20260510052326 53 229 1.0 2.0 0.00 0.00 0.00 87 1013.4
20260510051809 53 243 1.0 2.0 0.00 0.00 0.00 87 1013.5
20260510051600 53 219 0.0 0.0 0.00 0.00 0.00 87 1013.1
20260510051545 53 0 0.0 0.0 0.00 0.00 0.00 86 1011.1
20260510051338 53 219 0.0 0.0 0.00 0.00 0.00 86 1013.5
20260510050855 53 219 0.0 0.0 0.00 0.00 0.00 86 1013.6
20260510050316 53 218 0.0 0.0 0.00 0.00 0.00 86 1013.5
20260510050050 53 214 0.0 0.0 0.00 0.00 0.00 86 1013.2
20260510050039 53 0 0.0 0.0 0.00 0.00 0.00 86 1011.2
20260510045826 53 214 0.0 0.0 0.00 0.00 0.00 86 1013.6
20260510045315 53 238 0.0 0.0 0.00 0.00 0.00 86 1013.5
20260510044825 53 218 0.0 0.0 0.00 0.00 0.00 86 1013.4
20260510044538 53 0 0.0 0.0 0.00 0.00 0.00 85 1011.2
20260510044531 53 218 0.0 0.0 0.00 0.00 0.00 86 1013.0
20260510044334 53 229 0.0 0.0 0.00 0.00 0.00 86 1013.5
20260510043815 53 229 0.0 0.0 0.00 0.00 0.00 86 1013.5
20260510043325 53 229 0.0 0.0 0.00 0.00 0.00 85 1013.5
20260510043042 53 0 0.0 0.0 0.00 0.00 0.00 85 1011.4
20260510043007 53 229 0.0 0.0 0.00 0.00 0.00 85 1013.1
20260510042813 54 229 0.0 0.0 0.00 0.00 0.00 85 1013.5
20260510042322 54 233 0.0 0.0 0.00 0.00 0.00 85 1013.4
20260510041824 54 224 0.0 0.0 0.00 0.00 0.00 85 1013.5
20260510041607 53 224 0.0 0.0 0.00 0.00 0.00 85 1013.1
20260510041534 53 0 0.0 0.0 0.00 0.00 0.00 85 1011.2
20260510041313 54 224 0.0 0.0 0.00 0.00 0.00 85 1013.5
20260510040823 54 224 0.0 1.0 0.00 0.00 0.00 85 1013.5
20260510040331 54 224 0.0 2.0 0.00 0.00 0.00 85 1013.5
20260510040042 54 224 0.0 3.0 0.00 0.00 0.00 85 1013.0
20260510040039 54 224 0.0 3.0 0.00 0.00 0.00 84 1011.2
20260510035840 54 224 1.0 3.0 0.00 0.00 0.00 85 1013.4
20260510035321 54 230 2.0 3.0 0.00 0.00 0.00 85 1013.4
20260510034812 54 239 2.0 2.0 0.00 0.00 0.00 85 1013.4
20260510034544 54 239 0.0 2.0 0.00 0.00 0.00 84 1011.2
20260510034505 54 239 0.0 2.0 0.00 0.00 0.00 84 1013.0
20260510034340 55 239 0.0 2.0 0.00 0.00 0.00 84 1013.4
20260510033827 55 239 1.0 3.0 0.00 0.00 0.00 84 1013.4
20260510033315 55 238 1.0 3.0 0.00 0.00 0.00 84 1013.4
20260510033041 54 242 0.0 3.0 0.00 0.00 0.00 83 1011.1
20260510033022 54 242 0.0 3.0 0.00 0.00 0.00 84 1012.9
20260510032824 55 227 0.0 0.0 0.00 0.00 0.00 84 1013.2
20260510032335 55 227 0.0 0.0 0.00 0.00 0.00 84 1013.2
20260510031817 55 227 0.0 0.0 0.00 0.00 0.00 84 1013.2
20260510031607 55 0 0.0 0.0 0.00 0.00 0.00 83 1010.9
20260510031602 55 227 0.0 0.0 0.00 0.00 0.00 83 1012.8
20260510031325 55 226 0.0 0.0 0.00 0.00 0.00 83 1013.1
20260510030837 56 226 0.0 0.0 0.00 0.00 0.00 83 1013.2
20260510030325 56 226 0.0 0.0 0.00 0.00 0.00 83 1013.1
20260510030038 55 0 0.0 0.0 0.00 0.00 0.00 82 1010.8
20260510030007 56 226 0.0 0.0 0.00 0.00 0.00 82 1012.6
20260510025812 56 226 0.0 0.0 0.00 0.00 0.00 82 1013.0
20260510025320 56 226 0.0 0.0 0.00 0.00 0.00 82 1012.9
20260510024830 57 226 0.0 0.0 0.00 0.00 0.00 81 1012.8
20260510024553 56 226 0.0 0.0 0.00 0.00 0.00 81 1012.3
20260510024538 56 0 0.0 0.0 0.00 0.00 0.00 81 1010.5
20260510024313 57 226 0.0 0.0 0.00 0.00 0.00 81 1012.7
20260510023821 57 238 0.0 0.0 0.00 0.00 0.00 81 1012.8
20260510023356 57 238 0.0 2.0 0.00 0.00 0.00 80 1012.8
20260510023052 57 238 0.0 2.0 0.00 0.00 0.00 80 1012.3
20260510023048 57 0 0.0 2.0 0.00 0.00 0.00 80 1010.6
20260510022818 57 238 1.0 2.0 0.00 0.00 0.00 80 1012.7
20260510022347 58 238 1.0 2.0 0.00 0.00 0.00 80 1012.7
20260510021815 58 238 1.0 2.0 0.00 0.00 0.00 79 1012.5
20260510021543 58 238 0.0 3.0 0.00 0.00 0.00 78 1010.4
20260510021519 58 238 0.0 3.0 0.00 0.00 0.00 79 1012.1
20260510021324 58 238 1.0 3.0 0.00 0.00 0.00 79 1012.5
20260510020834 59 238 2.0 3.0 0.00 0.00 0.00 78 1012.5
20260510020317 59 238 1.0 3.0 0.00 0.00 0.00 78 1012.4
20260510020037 59 0 0.0 3.0 0.00 0.00 0.00 77 1010.1
20260510020010 58 238 0.0 3.0 0.00 0.00 0.00 78 1011.8
20260510015828 59 238 1.0 3.0 0.00 0.00 0.00 78 1012.3
20260510015311 59 234 1.0 3.0 0.00 0.00 0.00 77 1012.2
20260510014821 60 234 1.0 3.0 0.00 0.00 0.00 77 1012.2
20260510014606 59 191 1.0 2.0 0.00 0.00 0.00 76 1011.7
20260510014535 59 191 0.0 2.0 0.00 0.00 0.00 76 1010.0
20260510014310 60 192 0.0 2.0 0.00 0.00 0.00 76 1012.0
20260510013839 60 186 0.0 2.0 0.00 0.00 0.00 75 1011.9
20260510013324 60 176 0.0 1.0 0.00 0.00 0.00 75 1011.8
20260510013107 60 176 0.0 2.0 0.00 0.00 0.00 74 1011.2
20260510013038 60 0 0.0 2.0 0.00 0.00 0.00 74 1009.6
20260510012814 61 176 0.0 2.0 0.00 0.00 0.00 74 1011.6
20260510012324 61 176 0.0 2.0 0.00 0.00 0.00 74 1011.5
20260510011809 62 174 0.0 2.0 0.00 0.00 0.00 73 1011.6
20260510011548 62 0 0.0 2.0 0.00 0.00 0.00 72 1009.3
20260510011317 62 174 0.0 2.0 0.00 0.00 0.00 72 1011.3
20260510010315 63 174 0.0 1.0 0.00 0.00 0.00 70 1011.4
20260510010044 63 174 0.0 1.0 0.00 0.00 0.00 69 1009.3
20260510010011 63 174 0.0 1.0 0.00 0.00 0.00 69 1010.9
20260510005846 64 174 0.0 1.0 0.00 0.00 0.00 69 1011.4
20260510005313 64 174 0.0 2.0 0.00 0.00 0.00 69 1011.3
20260510004823 65 174 0.0 2.0 0.00 0.00 0.00 67 1011.3
20260510004539 64 174 0.0 2.0 0.00 0.00 0.00 67 1010.8
20260510004537 64 0 0.0 2.0 0.00 0.00 0.00 66 1009.4
20260510004309 65 174 0.0 2.0 0.00 0.00 0.00 66 1011.2
20260510003818 65 174 1.0 2.0 0.00 0.00 0.00 66 1011.2
20260510003328 66 174 0.0 2.0 0.00 0.00 0.00 65 1011.0
20260510003038 65 0 0.0 2.0 0.00 0.00 0.00 64 1009.1
20260510003016 65 174 0.0 2.0 0.00 0.00 0.00 65 1010.5
20260510002817 66 174 0.0 2.0 0.00 0.00 0.00 65 1011.0
20260510002322 66 182 0.0 2.0 0.00 0.00 0.00 64 1011.0
20260510001810 66 182 0.0 3.0 0.00 0.00 0.00 64 1010.8
20260510001536 66 0 0.0 4.0 0.00 0.00 0.00 63 1008.8
20260510001506 66 190 0.0 3.0 0.00 0.00 0.00 64 1010.3
20260510001340 67 173 1.0 3.0 0.00 0.00 0.00 64 1010.8
20260510000830 67 190 1.0 3.0 0.00 0.00 0.00 63 1010.8
20260510000319 67 209 1.0 2.0 0.00 0.00 0.00 63 1010.7
20260510000037 67 0 0.0 2.0 0.00 0.00 0.00 62 1008.7
20260510000023 67 188 1.0 2.0 0.00 0.00 0.00 62 1010.2
20260509235828 67 200 0.0 1.0 0.00 0.00 0.00 62 1010.7
20260509235310 68 198 0.0 2.0 0.00 0.00 0.00 61 1010.6
20260509234846 68 236 1.0 3.0 0.00 0.00 0.00 61 1010.5
20260509234558 68 240 0.0 3.0 0.00 0.00 0.00 61 1010.1
20260509234536 68 0 0.0 3.0 0.00 0.00 0.00 61 1008.5
20260509234327 68 234 0.0 3.0 0.00 0.00 0.00 62 1010.5
20260509233817 68 191 1.0 6.0 0.00 0.00 0.00 61 1010.6
20260509233327 69 236 1.0 6.0 0.00 0.00 0.00 61 1010.5
20260509233037 68 192 1.0 5.0 0.00 0.00 0.00 58 1008.5
20260509233029 68 133 1.0 4.0 0.00 0.00 0.00 59 1010.0
20260509232810 69 236 2.0 4.0 0.00 0.00 0.00 59 1010.5
20260509232321 69 210 0.0 5.0 0.00 0.00 0.00 59 1010.5
20260509231810 69 229 2.0 5.0 0.00 0.00 0.00 58 1010.5
20260509231539 69 261 2.0 6.0 0.00 0.00 0.00 57 1008.6
20260509231528 69 257 2.0 5.0 0.00 0.00 0.00 58 1010.1
20260509231318 69 211 2.0 6.0 0.00 0.00 0.00 58 1010.6
20260509230823 70 159 0.0 6.0 0.00 0.00 0.00 57 1010.4
20260509230311 70 248 2.0 4.0 0.00 0.00 0.00 57 1010.5
20260509230039 69 219 2.0 6.0 0.00 0.00 0.00 57 1008.5
20260509230008 69 209 2.0 6.0 0.00 0.00 0.00 58 1010.1
20260509225820 70 230 3.0 6.0 0.00 0.00 0.00 57 1010.5
20260509225332 70 237 3.0 6.0 0.00 0.00 0.00 58 1010.5
20260509224814 71 219 1.0 3.0 0.00 0.00 0.00 57 1010.3
20260509224557 71 159 0.0 3.0 0.00 0.00 0.00 57 1009.9
20260509224536 71 159 0.0 3.0 0.00 0.00 0.00 56 1008.4
20260509224321 71 173 0.0 5.0 0.00 0.00 0.00 56 1010.3
20260509223832 72 192 2.0 6.0 0.00 0.00 0.00 55 1010.4
20260509223315 72 227 1.0 5.0 0.00 0.00 0.00 54 1010.4
20260509223046 72 195 0.0 5.0 0.00 0.00 0.00 54 1009.8
20260509223035 72 195 1.0 5.0 0.00 0.00 0.00 53 1008.3
20260509222825 72 233 2.0 5.0 0.00 0.00 0.00 53 1010.2
20260509222313 73 240 1.0 6.0 0.00 0.00 0.00 53 1010.4
20260509221843 73 266 3.0 6.0 0.00 0.00 0.00 54 1010.6
20260509221539 72 123 0.0 8.0 0.00 0.00 0.00 55 1008.5
20260509221511 72 121 0.0 8.0 0.00 0.00 0.00 55 1010.1
20260509221310 72 18 1.0 8.0 0.00 0.00 0.00 54 1010.7
20260509220820 72 169 3.0 8.0 0.00 0.00 0.00 53 1010.6
20260509220350 72 194 2.0 4.0 0.00 0.00 0.00 54 1010.6
20260509220044 71 346 1.0 6.0 0.00 0.00 0.00 53 1008.6
20260509220024 71 346 1.0 6.0 0.00 0.00 0.00 53 1010.2
20260509215816 72 227 2.0 6.0 0.00 0.00 0.00 54 1010.7
20260509215319 72 312 2.0 10.0 0.00 0.00 0.00 54 1010.6
20260509214828 72 347 3.0 11.0 0.00 0.00 0.00 53 1010.7
20260509214600 71 210 2.0 12.0 0.00 0.00 0.00 55 1010.2
20260509214539 71 268 3.0 12.0 0.00 0.00 0.00 54 1008.7
20260509214317 72 145 4.0 12.0 0.00 0.00 0.00 54 1010.8
20260509213826 71 308 3.0 9.0 0.00 0.00 0.00 55 1010.9
20260509213336 71 281 1.0 5.0 0.00 0.00 0.00 56 1010.7
20260509213047 71 0 1.0 6.0 0.00 0.00 0.00 55 1008.7
20260509212818 71 229 3.0 5.0 0.00 0.00 0.00 56 1010.8
20260509212328 71 184 0.0 3.0 0.00 0.00 0.00 56 1010.8
20260509211817 71 165 2.0 11.0 0.00 0.00 0.00 55 1010.7
20260509211604 71 194 1.0 11.0 0.00 0.00 0.00 54 1008.6
20260509211535 71 175 1.0 11.0 0.00 0.00 0.00 55 1010.3
20260509211320 71 209 3.0 11.0 0.00 0.00 0.00 55 1010.6
20260509210809 72 12 1.0 4.0 0.00 0.00 0.00 55 1010.7
20260509210319 72 185 1.0 8.0 0.00 0.00 0.00 55 1010.8
20260509210038 71 216 2.0 8.0 0.00 0.00 0.00 54 1008.6
20260509210015 71 214 2.0 8.0 0.00 0.00 0.00 55 1010.3
20260509205849 72 317 3.0 8.0 0.00 0.00 0.00 55 1010.8
20260509205337 72 164 0.0 8.0 0.00 0.00 0.00 56 1010.8
20260509204854 72 277 4.0 8.0 0.00 0.00 0.00 55 1010.9
20260509204556 71 312 2.0 6.0 0.00 0.00 0.00 54 1008.7
20260509204549 71 285 3.0 6.0 0.00 0.00 0.00 55 1010.3
20260509204314 72 242 3.0 5.0 0.00 0.00 0.00 55 1010.8
20260509203823 72 67 2.0 4.0 0.00 0.00 0.00 56 1010.8
20260509203311 72 76 1.0 8.0 0.00 0.00 0.00 56 1010.8
20260509203041 72 0 2.0 8.0 0.00 0.00 0.00 54 1008.7
20260509203030 72 195 0.0 8.0 0.00 0.00 0.00 55 1010.3
20260509202823 72 308 4.0 8.0 0.00 0.00 0.00 55 1010.8
20260509202324 72 244 1.0 7.0 0.00 0.00 0.00 56 1010.8
20260509201819 72 218 2.0 5.0 0.00 0.00 0.00 55 1010.8
20260509201536 72 0 2.0 11.0 0.00 0.00 0.00 55 1008.7
20260509201515 72 263 2.0 11.0 0.00 0.00 0.00 55 1010.3
20260509201328 73 175 2.0 11.0 0.00 0.00 0.00 54 1010.8
20260509200813 73 315 3.0 11.0 0.00 0.00 0.00 53 1010.8
20260509200323 74 206 2.0 6.0 0.00 0.00 0.00 54 1010.7
20260509200104 73 142 0.0 8.0 0.00 0.00 0.00 55 1010.3
20260509200038 73 136 1.0 8.0 0.00 0.00 0.00 53 1008.7
20260509195812 74 266 2.0 8.0 0.00 0.00 0.00 55 1010.8
20260509195320 73 360 3.0 8.0 0.00 0.00 0.00 56 1010.8
20260509194831 72 221 2.0 7.0 0.00 0.00 0.00 57 1010.9
20260509194540 71 99 2.0 7.0 0.00 0.00 0.00 57 1010.4
20260509194538 71 23 2.0 7.0 0.00 0.00 0.00 57 1008.9
20260509194310 72 148 2.0 6.0 0.00 0.00 0.00 58 1010.9
20260509193820 71 317 2.0 6.0 0.00 0.00 0.00 58 1010.9
20260509193311 72 232 3.0 7.0 0.00 0.00 0.00 55 1010.9
20260509193036 71 244 1.0 7.0 0.00 0.00 0.00 56 1009.0
20260509193029 71 219 2.0 7.0 0.00 0.00 0.00 56 1010.5
20260509192824 72 240 3.0 7.0 0.00 0.00 0.00 55 1011.1
20260509192327 72 267 2.0 10.0 0.00 0.00 0.00 56 1011.0
20260509191816 72 258 6.0 10.0 0.00 0.00 0.00 55 1011.1
20260509191534 72 274 3.0 10.0 0.00 0.00 0.00 54 1009.0
20260509191507 72 198 2.0 9.0 0.00 0.00 0.00 55 1010.5
20260509191325 73 190 4.0 9.0 0.00 0.00 0.00 56 1011.0
20260509190816 73 227 3.0 11.0 0.00 0.00 0.00 56 1011.0
20260509190318 73 219 3.0 16.0 0.00 0.00 0.00 57 1011.0
20260509190058 72 313 3.0 16.0 0.00 0.00 0.00 55 1010.5
20260509190043 72 284 3.0 16.0 0.00 0.00 0.00 55 1009.0
20260509185827 73 286 5.0 16.0 0.00 0.00 0.00 57 1011.0
20260509185316 73 267 2.0 13.0 0.00 0.00 0.00 57 1011.1
20260509184844 72 294 4.0 13.0 0.00 0.00 0.00 57 1011.1
20260509184553 71 255 2.0 10.0 0.00 0.00 0.00 57 1010.5
20260509184537 71 185 3.0 10.0 0.00 0.00 0.00 56 1009.1
20260509184311 72 204 4.0 10.0 0.00 0.00 0.00 56 1010.9
20260509183820 71 165 3.0 7.0 0.00 0.00 0.00 58 1011.0
20260509183329 71 229 3.0 8.0 0.00 0.00 0.00 59 1010.9
20260509183041 70 174 3.0 10.0 0.00 0.00 0.00 56 1008.9
20260509183038 70 200 3.0 8.0 0.00 0.00 0.00 57 1010.5
20260509182813 71 177 3.0 8.0 0.00 0.00 0.00 59 1011.0
20260509182321 70 183 3.0 10.0 0.00 0.00 0.00 58 1011.0
20260509181809 70 232 3.0 9.0 0.00 0.00 0.00 61 1011.0
20260509181601 69 220 4.0 9.0 0.00 0.00 0.00 60 1010.5
20260509181540 69 175 3.0 9.0 0.00 0.00 0.00 59 1009.1
20260509181318 69 250 3.0 9.0 0.00 0.00 0.00 61 1011.0
20260509180827 69 237 2.0 6.0 0.00 0.00 0.00 61 1011.0
20260509180337 68 92 3.0 7.0 0.00 0.00 0.00 62 1011.1
20260509180037 67 123 2.0 5.0 0.00 0.00 0.00 64 1009.4
20260509180024 67 123 2.0 4.0 0.00 0.00 0.00 64 1010.7
20260509175824 67 173 2.0 4.0 0.00 0.00 0.00 62 1011.2
20260509175333 67 90 1.0 5.0 0.00 0.00 0.00 63 1011.3
20260509174814 66 137 1.0 7.0 0.00 0.00 0.00 63 1011.2
20260509174534 66 271 1.0 8.0 0.00 0.00 0.00 61 1009.3
20260509174509 66 282 1.0 7.0 0.00 0.00 0.00 61 1010.8
20260509174322 66 258 2.0 7.0 0.00 0.00 0.00 61 1011.3
20260509173831 66 182 2.0 8.0 0.00 0.00 0.00 61 1011.4
20260509173316 66 28 2.0 8.0 0.00 0.00 0.00 62 1011.5
20260509173057 66 299 2.0 8.0 0.00 0.00 0.00 61 1011.0
20260509173037 66 269 2.0 8.0 0.00 0.00 0.00 60 1009.6
20260509172824 66 269 3.0 8.0 0.00 0.00 0.00 61 1011.6
20260509172313 66 253 2.0 4.0 0.00 0.00 0.00 63 1011.7
20260509171823 66 244 1.0 4.0 0.00 0.00 0.00 62 1011.8
20260509171546 65 292 0.0 3.0 0.00 0.00 0.00 62 1011.3
20260509171541 65 0 0.0 3.0 0.00 0.00 0.00 61 1009.8
20260509171324 65 231 0.0 3.0 0.00 0.00 0.00 62 1011.8
20260509170818 65 229 1.0 5.0 0.00 0.00 0.00 62 1011.8
20260509170326 66 246 2.0 5.0 0.00 0.00 0.00 62 1011.8
20260509170037 65 234 1.0 6.0 0.00 0.00 0.00 61 1009.8
20260509170026 65 215 1.0 5.0 0.00 0.00 0.00 62 1011.3
20260509165816 66 202 2.0 5.0 0.00 0.00 0.00 62 1011.8
20260509165321 65 180 1.0 2.0 0.00 0.00 0.00 63 1011.9
20260509164809 65 204 1.0 3.0 0.00 0.00 0.00 61 1012.0
20260509164537 65 0 0.0 3.0 0.00 0.00 0.00 61 1010.0
20260509164502 65 275 0.0 3.0 0.00 0.00 0.00 62 1011.5
20260509164338 65 313 2.0 3.0 0.00 0.00 0.00 62 1012.0
20260509163846 65 19 1.0 2.0 0.00 0.00 0.00 61 1012.0
20260509163314 65 317 0.0 5.0 0.00 0.00 0.00 63 1011.9
20260509163050 64 0 1.0 5.0 0.00 0.00 0.00 61 1010.0
20260509163010 64 340 1.0 5.0 0.00 0.00 0.00 61 1011.3
20260509162823 65 323 2.0 5.0 0.00 0.00 0.00 61 1011.9
20260509162332 65 177 1.0 5.0 0.00 0.00 0.00 62 1011.8
20260509161840 65 211 2.0 6.0 0.00 0.00 0.00 61 1011.8
20260509161536 64 211 1.0 6.0 0.00 0.00 0.00 60 1011.3
20260509161533 64 211 2.0 7.0 0.00 0.00 0.00 60 1009.9
20260509161322 65 190 3.0 6.0 0.00 0.00 0.00 60 1011.8
20260509160833 65 180 2.0 8.0 0.00 0.00 0.00 61 1011.7
20260509160320 65 24 2.0 8.0 0.00 0.00 0.00 60 1011.7
20260509160055 64 226 2.0 7.0 0.00 0.00 0.00 60 1011.2
20260509160033 64 240 2.0 7.0 0.00 0.00 0.00 61 1009.7
20260509155856 64 179 3.0 7.0 0.00 0.00 0.00 62 1011.7
20260509155316 64 218 2.0 6.0 0.00 0.00 0.00 62 1011.7
20260509154824 63 148 2.0 5.0 0.00 0.00 0.00 65 1011.5
20260509154539 62 252 1.0 5.0 0.00 0.00 0.00 66 1009.6
20260509154517 62 252 1.0 5.0 0.00 0.00 0.00 67 1011.0
20260509154333 63 178 2.0 5.0 0.00 0.00 0.00 68 1011.4